Hourly Data Report for August 16, 2017

QUALICUM BEACH AIRPORT
BRITISH COLUMBIA

49°20'14.000" N
124°23'38.000" W
58.20 m
1026562
71766
VOQ

Download Data

Hourly Data (August 2017)
Hourly Data Report for August 16, 2017
TIME
LST
Temp Definition
°C
Dew Point Definition
°C
Rel Hum Definition
%
Precip. Amount Definition
mm

Wind Dir Definition
10's deg

Wind Spd Definition
km/h
Visibility Definition
km
Stn Press Definition
kPa
Hmdx Definition


Wind Chill Definition


Weather Definition


00:00 14.0 10.3 78 0.0 22 2   100.89     LegendNANA
01:00 12.6 10.4 86 0.0 22 2   100.91     LegendNANA
02:00 13.9 10.6 81 0.0 26 4   100.97     LegendNANA
03:00 13.7 11.5 87 0.0 27 5   101.01     LegendNANA
04:00 12.5 10.6 89 0.0 22 3   100.99     LegendNANA
05:00 12.8 10.8 88 0.0 24 2   101.00     LegendNANA
06:00 13.4 11.1 86 0.0 23 2   101.02     LegendNANA
07:00 16.0 12.0 77 0.0 30 4   101.06     LegendNANA
08:00 18.9 12.9 68 0.0 10 4   101.07     LegendNANA
09:00 20.5 12.6 61 0.0 7 7   101.06     LegendNANA
10:00 20.3 13.5 65 0.0 8 12   101.09     LegendNANA
11:00 20.2 13.9 67 0.0 9 13   101.10     LegendNANA
12:00 20.4 14.3 68 0.0 10 16   101.10     LegendNANA
13:00 20.7 13.0 61 0.0 8 14   101.10     LegendNANA
14:00 21.4 11.9 55 0.0 9 14   101.09     LegendNANA
15:00 21.7 11.9 54 0.0 8 12   101.06     LegendNANA
16:00 22.3 12.8 55 0.0 9 8   101.03 25   LegendNANA
17:00 22.2 13.0 56 0.0 7 9   101.02 25   LegendNANA
18:00 20.9 13.5 63 0.0 10 5   101.02     LegendNANA
19:00 20.0 13.7 67 0.0 11 3   101.03     LegendNANA
20:00 18.7 15.2 80 0.0 16 2   101.08     LegendNANA
21:00 18.9 13.2 70 0.0 26 6   101.10     LegendNANA
22:00 18.7 12.9 69 0.0 27 6   101.12     LegendNANA
23:00 16.0 12.7 80 0.0 24 5   101.17     LegendNANA

Notes on Data Quality.

Legend

  • E = Estimated
  • M = Missing
  • NA = Not Available*
  • [empty] = Indicates an unobserved value
Date modified: